Regional Weather Roundup
Issued by NWS Upton, NY

Current Version | Previous Version | Text Only | Print | Product List | Glossary On
Versions: 1 2 3 4 5 6 7 8 9 10 11 12 13 14 15 16 17 18 19 20 21 22 23 24 25 26 27 28 29 30 31 32 33 34 35 36 37 38 39 40 41 42 43 44 45 46 47 48 49 50
463 ASUS41 KOKX 261004 RWROKX REGIONAL WEATHER ROUNDUP NATIONAL WEATHER SERVICE NEW YORK NY 600 AM EDT MON SEP 26 2016 NOTE: "FAIR" INDICATES FEW OR NO CLOUDS BELOW 12,000 FEET WITH NO SIGNIFICANT WEATHER AND/OR OBSTRUCTIONS TO VISIBILITY. NYZ071-072-176-178-NJZ106-104-261100- NEW YORK CITY METRO AREA CITY SKY/WX TMP DP RH WIND PRES REMARKS Central Park CLEAR 57 40 52 NE7 30.21R LaGuardia APRT CLEAR 59 46 62 E6 30.18R Kennedy INTL PTCLDY 54 42 64 NE7 30.18S Newark/Liberty PTCLDY 51 44 77 N9 30.18S Bronx Bot Gard N/A 50 39 66 E1 30.19S Wall St Helipt SUNNY 63 48 59 NE9 30.18S Teterboro CLEAR 50 45 83 N6 30.18R $$ NYZ177-179-078>081-261100- LONG ISLAND NEW YORK CITY SKY/WX TMP DP RH WIND PRES REMARKS Farmingdale CLEAR 52 40 63 NE5 30.18S MacArthur/ISP CLEAR 52 41 66 NE8 30.18S Shirley CLEAR 44 41 89 CALM 30.20R Riverhead NOT AVBL Westhampton CLEAR 37 34 89 E3 30.21S Southampton N/A 50 43 76 NE3 30.16S Bridgehampton N/A 46 43 87 CALM 30.05R East Hampton FAIR 40 39 95 CALM 30.19S Montauk N/A 54 42 64 NE3 30.20S $$ NYZ052-065-067-261100- HUDSON VALLEY CITY SKY/WX TMP DP RH WIND PRES REMARKS White Plains CLEAR 49 36 61 E6 30.18S Newburgh CLEAR 41 41 100 CALM 30.21S Montgomery CLEAR 37 35 92 CALM 30.20S Poughkeepsie PTCLDY 36 35 96 CALM 30.20S Albany FOG 39 37 92 CALM 30.21R VSB 1 $$ NJZ001-105-106-008-010-013-015-019>022-104-261100- NEW JERSEY CITY SKY/WX TMP DP RH WIND PRES REMARKS Newark/Liberty PTCLDY 51 44 77 N9 30.18S Teterboro CLEAR 50 45 83 N6 30.18R Caldwell CLEAR 45 42 89 CALM 30.20R Morristown CLEAR 37 37 100 CALM 30.19S Somerville CLEAR 42 39 89 NW3 30.17S Linden NOT AVBL Sussex CLEAR 37 36 96 CALM 30.19F Abdover N/A 42 41 96 CALM 30.19S Trenton CLEAR 47 43 86 N5 30.17S Millville MOCLDY 48 48 100 CALM 30.17S Atlantic City CLEAR 49 45 86 CALM 30.17S Wrightstown CLEAR 45 44 94 CALM 30.15S Toms River CLEAR 40 37 89 CALM 30.18S Belmar CLEAR 51 46 83 CALM 30.18S $$ PAZ047>061-062-071-261100- EASTERN PENNSYLVANIA CITY SKY/WX TMP DP RH WIND PRES REMARKS Philadelphia PTCLDY 56 51 84 CALM 30.18R Allentown CLEAR 43 39 86 NW3 30.18R Scranton CLEAR 48 38 68 NE8 30.15S $$ CTZ002-004>006-009-010-012-RIZ004-006-007-MAZ004-011-015-261100- SOUTHERN NEW ENGLAND IN CT CITY SKY/WX TMP DP RH WIND PRES REMARKS Bradley INTL PTCLDY 38 35 89 N3 30.22R Hartford CLEAR 42 41 96 CALM 30.22R Danbury CLEAR 37 35 92 CALM 30.21S Wtrbury/Oxford CLEAR 39 34 81 CALM 30.21S Bridgeport CLEAR 49 41 74 N7 30.20S Meriden CLEAR 41 37 86 CALM 30.22R New Haven PTCLDY 43 39 86 N5 30.21R Chester FAIR 43 37 81 CALM 30.20R Groton CLEAR 45 40 82 N6 30.20R Wilimantic MOCLDY 38 36 92 N5 30.22R WCI 34 IN RI CITY SKY/WX TMP DP RH WIND PRES REMARKS Providence PTCLDY 44 37 76 CALM 30.21R Block Island CLEAR 52 46 80 N6 30.20R Westerly CLEAR 39 35 86 CALM 30.21R IN MA CITY SKY/WX TMP DP RH WIND PRES REMARKS Boston PTCLDY 48 39 71 NW7 30.21R Worcester CLEAR 47 33 58 N3 30.20R Westfield CLOUDY 36 36 100 CALM 30.22R FOG Provincetown CLEAR 54 39 57 N8 30.19R Nantucket CLEAR 47 40 76 NE3 30.18R $$ ANZ330-335-338-340-345-350-353-355-261100- COASTAL MARINE OBSERVATIONS STATION/POSITION TIME SKY/WX TEMP WIND PRES VSBY WAVE AIR SEA DIR/SP/G HT/PER (UTC) (F) (DEG/KT/KT) (MB) (MI) (FT/S) NY HARB ENTRANCE 0850 65 71 110/ 6/ 10 1021.4 2/10 20S FIRE ISLAND 0850 64 69 80/ 6/ 8 1021.4 2/10 GREAT SOUTH BAY 0930 59 69 60/ 12/ 14 N/A 23 SSW MONTAUK P 0850 61 68 40/ 10/ 12 1022.0 2/10 15 E BARNEGAT LI 0900 70 N/A 2/10 HUDSON CANYON 0850 65 69 1021.4 2/10 KINGS POINT 0924 55 72 1021.8 EXECUTION ROCKS 0945 59 30/ 10/ 14 N/A CENTRAL LI SOUND 0930 59 72 80/ 10/ 14 N/A 2/ 3 EASTERN LI SOUND NOT AVBL ROBBINS REEF 0924 59 340/ 3/ 4 1021.9 $$ >>>>>>>>>>>>>>>>>>>>>>>>>>>> KEY <<<<<<<<<<<<<<<<<<<<<<<<<<< > < > SKY/WX - Sky Condition/Present Weather < > TMP - Temperature in Fahrenheit < > DP - Dew Point in Fahrenheit < > RH - Relative Humidity in Percent < > WIND - Direction (from) and Speed in MPH < > PRES - Mean Sea Level Pressure (inches of Hg) < > WCI - Wind Chill Index < > VSB - VISIBILITY IN MILES < > HX - HEAT INDEX < > TC - TEMPERATURE IN CELSIUS < > VRB - VARIABLE WIND DIRECTION < > < >>>>>>>>>>>>>>>>>>>>>>>>>>>> KEY <<<<<<<<<<<<<<<<<<<<<<<<<<<

USA.gov is the U.S. government's official web portal to all federal, state and local government web resources and services.